Ludington, MI

3:18 AM EST on November 17, 2019 (GMT -0500)
Mason County

Weather History for KLDM - September, 2019

Change the Weather History Date:

Monday, September 30, 2019

  Actual Average Record
Temperature  
Mean Temperature 68 °F -  
Max Temperature 81 °F 64 °F 82 °F (1971)
Min Temperature 55 °F 46 °F 29 °F (1993)
Cooling Degree Days 3    
Growing Degree Days 18 (Base 50)    
Moisture  
Dew Point 62 °F    
Average Humidity 84    
Maximum Humidity 96    
Minimum Humidity 65    
Precipitation  
Precipitation 0.00 in - - ()
Sea Level Pressure  
Sea Level Pressure 30.01 in    
Wind  
Wind Speed 11 mph (SSE)    
Max Wind Speed 22 mph    
Max Gust Speed 32 mph    
Visibility 9 miles    
Events      
Averages and records for this station are not official NWS values.
T = Trace of Precipitation, MM = Missing Value Source: NWS Daily Summary

Daily Weather History Graph

Daily Weather History Graph

Search for Another Location

Airport or City:

Astronomy

Sep. 30, 2019 Rise Set
Actual Time 7:41 AM EDT 7:28 PM EDT
Civil Twilight 7:13 AM EDT 7:57 PM EDT
Nautical Twilight 6:39 AM EDT 8:30 PM EDT
Astronomical Twilight 6:05 AM EDT 9:04 PM EDT
Moon 9:48 AM EDT (9/30) 8:59 PM EDT (9/30)
Length of Visible Light 12h 44m
Length of Day
11h 46m
Waxing Crescent, 5% of the Moon is Illuminated
Sep 30
Waxing Crescent
Oct 5
First Quarter
Oct 13
Full
Oct 21
Last Quarter
Oct 27
New

Hourly Weather History & Observations

Time (EDT) Temp. Heat Index Dew Point Humidity Pressure Visibility Wind Dir Wind Speed Gust Speed Precip Events Conditions
12:15 AM 56.5 °F - 54.9 °F 94% 30.17 in 10.0 mi ESE 10.4 mph - N/A   Overcast
12:38 AM 56.5 °F - 55.2 °F 96% 30.17 in 10.0 mi East 9.2 mph - N/A   Overcast
12:56 AM 56.5 °F - 55.0 °F 95% 30.18 in 10.0 mi ESE 9.2 mph 16.1 mph N/A   Overcast
1:15 AM 56.5 °F - 55.4 °F 96% 30.17 in 10.0 mi ESE 8.1 mph - N/A   Overcast
1:16 AM 56.5 °F - 55.4 °F 96% 30.17 in 10.0 mi ESE 9.2 mph - N/A   Overcast
1:35 AM 56.5 °F - 55.0 °F 95% 30.16 in 10.0 mi ESE 12.7 mph 17.3 mph N/A   Overcast
1:59 AM 56.5 °F - 55.0 °F 95% 30.16 in 10.0 mi ESE 8.1 mph - N/A   Overcast
2:16 AM 56.3 °F - 55.0 °F 96% 30.15 in 10.0 mi ESE 10.4 mph - N/A   Overcast
2:35 AM 56.3 °F - 55.0 °F 96% 30.15 in 10.0 mi ESE 8.1 mph - N/A   Overcast
2:36 AM 56.3 °F - 55.0 °F 96% 30.15 in 10.0 mi ESE 8.1 mph - N/A   Overcast
2:56 AM 56.5 °F - 54.9 °F 94% 30.15 in 10.0 mi SE 11.5 mph 17.3 mph N/A   Overcast
3:15 AM 56.5 °F - 54.9 °F 94% 30.14 in 10.0 mi ESE 10.4 mph 16.1 mph N/A   Overcast
3:38 AM 56.3 °F - 54.7 °F 94% 30.14 in 10.0 mi ESE 10.4 mph 16.1 mph N/A   Overcast
3:56 AM 56.3 °F - 54.9 °F 95% 30.13 in 10.0 mi ESE 11.5 mph 16.1 mph N/A   Overcast
4:15 AM 55.9 °F - 54.7 °F 96% 30.12 in 5.0 mi ESE 10.4 mph - N/A   Overcast
4:16 AM 55.9 °F - 54.7 °F 96% 30.12 in 5.0 mi ESE 10.4 mph - N/A   Overcast
4:35 AM 55.9 °F - 54.7 °F 96% 30.12 in 3.0 mi ESE 8.1 mph - N/A   Overcast
4:36 AM 55.8 °F - 54.5 °F 96% 30.12 in 4.0 mi ESE 6.9 mph - N/A   Overcast
4:59 AM 55.9 °F - 54.7 °F 96% 30.11 in 7.0 mi ESE 8.1 mph - N/A   Overcast
5:17 AM 55.9 °F - 54.7 °F 96% 30.11 in 7.0 mi ESE 10.4 mph - N/A   Overcast
5:35 AM 56.3 °F - 54.9 °F 95% 30.11 in 7.0 mi ESE 10.4 mph - N/A   Overcast
5:36 AM 56.3 °F - 54.9 °F 95% 30.11 in 7.0 mi ESE 10.4 mph - N/A   Overcast
5:55 AM 56.3 °F - 55.0 °F 96% 30.10 in 7.0 mi ESE 9.2 mph - N/A   Overcast
5:56 AM 56.3 °F - 55.0 °F 96% 30.10 in 7.0 mi ESE 9.2 mph - N/A   Overcast
6:15 AM 56.3 °F - 55.0 °F 96% 30.10 in 5.0 mi ESE 9.2 mph - N/A   Overcast
6:20 AM 56.3 °F - 55.0 °F 96% 30.10 in 5.0 mi SE 10.4 mph - N/A   Overcast
6:38 AM 56.3 °F - 55.0 °F 96% 30.10 in 5.0 mi SE 9.2 mph - N/A   Overcast
6:56 AM 56.3 °F - 55.0 °F 96% 30.10 in 3.0 mi ESE 9.2 mph - N/A   Overcast
7:15 AM 56.3 °F - 55.0 °F 96% 30.10 in 3.0 mi SE 9.2 mph - N/A   Overcast
7:16 AM 56.3 °F - 55.0 °F 96% 30.10 in 3.0 mi SE 9.2 mph - N/A   Overcast
7:35 AM 56.3 °F - 55.2 °F 96% 30.09 in 3.0 mi ESE 8.1 mph - N/A   Overcast
7:36 AM 56.5 °F - 55.2 °F 96% 30.09 in 3.0 mi ESE 9.2 mph - N/A   Overcast
7:59 AM 56.5 °F - 55.4 °F 96% 30.08 in 4.0 mi SE 9.2 mph - N/A   Overcast
8:17 AM 56.8 °F - 55.6 °F 96% 30.08 in 4.0 mi SE 9.2 mph - N/A   Overcast
8:35 AM 57.2 °F - 55.8 °F 95% 30.08 in 5.0 mi SE 9.2 mph - N/A   Overcast
8:55 AM 57.6 °F - 56.3 °F 96% 30.08 in 5.0 mi SE 8.1 mph - N/A   Overcast
9:15 AM 57.9 °F - 56.7 °F 96% 30.07 in 7.0 mi SE 6.9 mph - N/A   Overcast
9:20 AM 58.1 °F - 56.8 °F 96% 30.07 in 7.0 mi SE 9.2 mph - N/A   Overcast
9:38 AM 58.5 °F - 57.2 °F 96% 30.06 in 7.0 mi ESE 11.5 mph 16.1 mph N/A   Overcast
9:56 AM 59.2 °F - 58.1 °F 96% 30.05 in 7.0 mi SE 10.4 mph - N/A   Overcast
10:15 AM 60.8 °F - 59.0 °F 94% 30.05 in 7.0 mi SE 10.4 mph - N/A   Overcast
10:35 AM 61.7 °F - 59.4 °F 92% 30.04 in 10.0 mi SE 9.2 mph - N/A   Overcast
10:36 AM 61.7 °F - 59.4 °F 92% 30.04 in 10.0 mi SE 8.1 mph - N/A   Overcast
10:59 AM 63.0 °F - 60.8 °F 93% 30.03 in 10.0 mi SE 11.5 mph 17.3 mph N/A   Overcast
11:17 AM 63.9 °F - 61.5 °F 92% 30.02 in 10.0 mi SE 9.2 mph 17.3 mph N/A   Overcast
11:35 AM 64.6 °F - 61.9 °F 91% 30.01 in 10.0 mi SE 9.2 mph 17.3 mph N/A   Overcast
11:55 AM 65.5 °F - 62.4 °F 90% 30.01 in 10.0 mi SSE 11.5 mph 17.3 mph N/A   Overcast
12:15 PM 67.1 °F - 63.1 °F 87% 30.00 in 10.0 mi SE 12.7 mph 17.3 mph N/A   Overcast
12:19 PM 67.3 °F - 63.1 °F 87% 30.00 in 10.0 mi SSE 11.5 mph 17.3 mph N/A   Overcast
12:38 PM 69.1 °F - 64.4 °F 85% 29.99 in 10.0 mi SSE 8.1 mph - N/A   Overcast
12:56 PM 69.8 °F - 65.1 °F 85% 29.99 in 10.0 mi SSE 8.1 mph - N/A   Overcast
1:15 PM 70.5 °F - 65.5 °F 84% 29.99 in 10.0 mi South 11.5 mph 18.4 mph N/A   Overcast
1:35 PM 72.0 °F - 66.2 °F 82% 29.97 in 10.0 mi SSE 9.2 mph - N/A   Overcast
1:36 PM 72.1 °F - 66.2 °F 82% 29.97 in 10.0 mi SSE 10.4 mph - N/A   Overcast
1:59 PM 73.8 °F - 66.9 °F 79% 29.97 in 10.0 mi South 8.1 mph - N/A   Scattered Clouds
2:16 PM 75.2 °F - 67.6 °F 77% 29.96 in 10.0 mi SSE 10.4 mph - N/A   Scattered Clouds
2:35 PM 76.8 °F - 68.2 °F 75% 29.95 in 10.0 mi South 8.1 mph - N/A   Clear
2:36 PM 76.8 °F - 68.2 °F 75% 29.95 in 10.0 mi South 6.9 mph - N/A   Clear
2:55 PM 79.0 °F - 69.1 °F 72% 29.94 in 10.0 mi South 16.1 mph - N/A   Clear
2:56 PM 79.2 °F - 68.9 °F 71% 29.94 in 10.0 mi South 13.8 mph 18.4 mph N/A   Clear
3:15 PM 80.6 °F 83.4 °F 68.4 °F 66% 29.92 in 10.0 mi SSW 12.7 mph 20.7 mph N/A   Scattered Clouds
3:38 PM 80.1 °F 82.7 °F 68.2 °F 67% 29.92 in 10.0 mi SSW 12.7 mph 21.9 mph N/A   Scattered Clouds
3:56 PM 78.8 °F - 68.2 °F 70% 29.92 in 10.0 mi SSW 13.8 mph 19.6 mph N/A   Mostly Cloudy
4:15 PM 78.3 °F - 68.5 °F 72% 29.92 in 10.0 mi SSW 10.4 mph 16.1 mph N/A   Overcast
4:16 PM 78.3 °F - 68.5 °F 72% 29.92 in 10.0 mi SSW 10.4 mph 16.1 mph N/A   Overcast
4:35 PM 79.3 °F - 68.9 °F 70% 29.92 in 10.0 mi SSW 10.4 mph - N/A   Mostly Cloudy
4:59 PM 81.0 °F 84.4 °F 69.8 °F 69% 29.90 in 10.0 mi SSW 9.2 mph - N/A   Overcast
5:17 PM 79.7 °F - 69.1 °F 70% 29.90 in 10.0 mi SSW 10.4 mph - N/A   Mostly Cloudy
5:35 PM 78.4 °F - 68.9 °F 72% 29.90 in 10.0 mi SSW 9.2 mph - N/A   Mostly Cloudy
5:36 PM 78.4 °F - 68.9 °F 72% 29.90 in 10.0 mi SSW 9.2 mph - N/A   Mostly Cloudy
5:55 PM 78.6 °F - 68.9 °F 72% 29.90 in 10.0 mi SSW 12.7 mph - N/A   Overcast
5:56 PM 78.6 °F - 68.9 °F 72% 29.90 in 10.0 mi South 12.7 mph 18.4 mph N/A   Overcast
6:15 PM 78.8 °F - 69.1 °F 72% 29.90 in 10.0 mi South 15.0 mph 23.0 mph N/A   Scattered Clouds
6:20 PM 78.8 °F - 68.9 °F 72% 29.89 in 10.0 mi South 6.9 mph 23.0 mph N/A   Scattered Clouds
6:38 PM 78.3 °F - 69.1 °F 73% 29.89 in 10.0 mi South 9.2 mph 16.1 mph N/A   Clear
6:56 PM 77.7 °F - 69.1 °F 75% 29.89 in 10.0 mi South 11.5 mph 16.1 mph N/A   Clear
7:15 PM 77.2 °F - 69.1 °F 76% 29.89 in 10.0 mi South 11.5 mph 18.4 mph N/A   Clear
7:35 PM 77.0 °F - 68.9 °F 76% 29.88 in 10.0 mi South 12.7 mph 19.6 mph N/A   Scattered Clouds
7:36 PM 77.0 °F - 68.9 °F 76% 29.88 in 10.0 mi South 13.8 mph 19.6 mph N/A   Scattered Clouds
7:59 PM 76.8 °F - 68.4 °F 75% 29.87 in 10.0 mi South 11.5 mph 17.3 mph N/A   Scattered Clouds
8:17 PM 76.6 °F - 68.2 °F 75% 29.88 in 10.0 mi SSW 13.8 mph - N/A   Clear
8:35 PM 77.2 °F - 68.0 °F 73% 29.88 in 10.0 mi SSW 15.0 mph 20.7 mph N/A   Clear
8:55 PM 77.9 °F - 67.3 °F 70% 29.88 in 10.0 mi SSW 17.3 mph 25.3 mph N/A   Clear
9:15 PM 77.9 °F - 67.1 °F 69% 29.88 in 10.0 mi SSW 18.4 mph 24.2 mph N/A   Clear
9:38 PM 78.3 °F - 66.7 °F 68% 29.88 in 10.0 mi SSW 16.1 mph 26.5 mph N/A   Clear
9:56 PM 77.9 °F - 66.6 °F 68% 29.87 in 10.0 mi SSW 18.4 mph 27.6 mph N/A   Clear
10:15 PM 78.1 °F - 66.6 °F 68% 29.87 in 10.0 mi SSW 18.4 mph 28.8 mph N/A   Clear
10:16 PM 78.1 °F - 66.6 °F 68% 29.87 in 10.0 mi SSW 18.4 mph 28.8 mph N/A   Clear
10:35 PM 78.1 °F - 66.7 °F 68% 29.88 in 10.0 mi SSW 18.4 mph 27.6 mph N/A   Clear
10:40 PM 78.3 °F - 66.9 °F 68% 29.88 in 10.0 mi SSW 17.3 mph 25.3 mph N/A   Clear
10:58 PM 79.0 °F - 67.1 °F 67% 29.88 in 10.0 mi SSW 20.7 mph 26.5 mph N/A   Clear
11:16 PM 78.8 °F - 67.1 °F 67% 29.88 in 10.0 mi SSW 18.4 mph 26.5 mph N/A   Clear
11:35 PM 79.3 °F - 66.7 °F 65% 29.88 in 10.0 mi SSW 19.6 mph 26.5 mph N/A   Clear
11:55 PM 79.7 °F - 67.1 °F 65% 29.89 in 10.0 mi SSW 21.9 mph 32.2 mph N/A   Scattered Clouds
11:56 PM 79.7 °F - 67.1 °F 65% 29.88 in 10.0 mi SSW 20.7 mph 32.2 mph N/A   Scattered Clouds